| time (UTC) | temp F | wind direction | speed knots | gust knots | rain 1hr in | rain 24hr in | rain mn in | humidity % | barometer mb |
| 20260903182352 | 78 | 212 | 2.6 | 7.0 | 0.00 | 0.74 | 0.00 | 80 | 1014.3 |
| 20260903181848 | 78 | 320 | 1.7 | 7.0 | 0.00 | 0.74 | 0.00 | 82 | 1014.3 |
| 20260903181344 | 77 | 182 | 0.9 | 3.5 | 0.00 | 0.74 | 0.00 | 83 | 1014.2 |
| 20260903180849 | 77 | 209 | 1.7 | 5.2 | 0.00 | 0.74 | 0.00 | 82 | 1014.3 |
| 20260903180359 | 77 | 304 | 1.7 | 5.2 | 0.00 | 0.74 | 0.00 | 82 | 1014.3 |
| 20260903175839 | 78 | 245 | 1.7 | 6.1 | 0.00 | 0.75 | 0.00 | 82 | 1014.3 |
| 20260903175338 | 78 | 38 | 1.7 | 6.1 | 0.00 | 0.75 | 0.00 | 82 | 1014.2 |
| 20260903174847 | 78 | 198 | 0.9 | 6.1 | 0.00 | 0.75 | 0.00 | 83 | 1014.1 |
| 20260903174337 | 78 | 251 | 1.7 | 3.5 | 0.00 | 0.75 | 0.00 | 84 | 1014.1 |
| 20260903173832 | 77 | 144 | 1.7 | 3.5 | 0.00 | 0.75 | 0.00 | 85 | 1014.3 |
| 20260903173339 | 77 | 253 | 1.7 | 5.2 | 0.00 | 0.75 | 0.00 | 84 | 1014.3 |
| 20260903172856 | 77 | 235 | 1.7 | 8.7 | 0.00 | 0.75 | 0.00 | 83 | 1014.4 |
| 20260903172353 | 78 | 202 | 3.5 | 8.7 | 0.00 | 0.75 | 0.00 | 83 | 1014.3 |
| 20260903171840 | 77 | 241 | 3.5 | 7.8 | 0.00 | 0.75 | 0.00 | 84 | 1014.4 |
| 20260903171334 | 77 | 190 | 1.7 | 7.8 | 0.00 | 0.75 | 0.00 | 84 | 1014.3 |
| 20260903170839 | 77 | 233 | 4.3 | 7.8 | 0.00 | 0.75 | 0.00 | 87 | 1014.3 |
| 20260903170340 | 76 | 250 | 2.6 | 7.8 | 0.00 | 0.75 | 0.00 | 87 | 1014.3 |
| 20260903165834 | 76 | 240 | 1.7 | 6.1 | 0.00 | 0.80 | 0.00 | 87 | 1014.5 |
| 20260903165334 | 76 | 230 | 2.6 | 6.1 | 0.00 | 0.80 | 0.00 | 88 | 1014.5 |
| 20260903164838 | 76 | 229 | 1.7 | 6.1 | 0.00 | 0.80 | 0.00 | 87 | 1014.5 |
| 20260903164403 | 76 | 209 | 2.6 | 6.1 | 0.00 | 0.80 | 0.00 | 87 | 1014.6 |
| 20260903163831 | 76 | 236 | 1.7 | 6.1 | 0.00 | 0.80 | 0.00 | 89 | 1014.5 |
| 20260903163355 | 75 | 205 | 0.9 | 4.3 | 0.00 | 0.80 | 0.00 | 88 | 1014.5 |
| 20260903162900 | 75 | 244 | 2.6 | 7.8 | 0.00 | 0.80 | 0.00 | 89 | 1014.6 |
| 20260903162341 | 74 | 231 | 2.6 | 7.8 | 0.00 | 0.80 | 0.00 | 89 | 1014.6 |
| 20260903161842 | 74 | 234 | 2.6 | 5.2 | 0.00 | 0.80 | 0.00 | 90 | 1014.6 |
| 20260903161404 | 74 | 239 | 1.7 | 5.2 | 0.00 | 0.80 | 0.00 | 90 | 1014.5 |
| 20260903160903 | 73 | 222 | 0.9 | 6.1 | 0.00 | 0.80 | 0.00 | 90 | 1014.5 |
| 20260903160345 | 73 | 222 | 1.7 | 6.1 | 0.00 | 0.80 | 0.00 | 90 | 1014.6 |
| 20260903155841 | 73 | 269 | 1.7 | 5.2 | 0.00 | 0.80 | 0.00 | 90 | 1014.7 |
| 20260903155345 | 73 | 235 | 2.6 | 5.2 | 0.00 | 0.80 | 0.00 | 91 | 1014.8 |
| 20260903154833 | 73 | 237 | 0.9 | 4.3 | 0.00 | 0.80 | 0.00 | 92 | 1014.8 |
| 20260903154342 | 72 | 194 | 1.7 | 6.1 | 0.00 | 0.80 | 0.00 | 91 | 1014.9 |
| 20260903153844 | 72 | 236 | 2.6 | 6.1 | 0.00 | 0.80 | 0.00 | 91 | 1014.7 |
| 20260903153336 | 72 | 243 | 1.7 | 5.2 | 0.00 | 0.80 | 0.00 | 92 | 1014.9 |
| 20260903152839 | 72 | 230 | 2.6 | 4.3 | 0.00 | 0.80 | 0.00 | 92 | 1014.9 |
| 20260903152338 | 72 | 183 | 1.7 | 4.3 | 0.00 | 0.80 | 0.00 | 92 | 1014.9 |
| 20260903151840 | 72 | 238 | 1.7 | 3.5 | 0.00 | 0.80 | 0.00 | 92 | 1015.0 |
| 20260903151344 | 72 | 221 | 0.9 | 5.2 | 0.00 | 0.80 | 0.00 | 92 | 1015.0 |
| 20260903150848 | 72 | 231 | 1.7 | 5.2 | 0.00 | 0.80 | 0.00 | 92 | 1014.9 |
| 20260903150341 | 72 | 198 | 1.7 | 3.5 | 0.00 | 0.80 | 0.00 | 92 | 1014.8 |
| 20260903145835 | 71 | 198 | 1.7 | 5.2 | 0.00 | 0.80 | 0.00 | 92 | 1014.9 |
| 20260903145337 | 71 | 228 | 2.6 | 6.1 | 0.00 | 0.80 | 0.00 | 92 | 1014.9 |
| 20260903144840 | 72 | 170 | 2.6 | 7.0 | 0.00 | 0.80 | 0.00 | 92 | 1014.9 |
| 20260903144338 | 72 | 222 | 0.9 | 7.0 | 0.00 | 0.80 | 0.00 | 92 | 1014.9 |
| 20260903143905 | 72 | 233 | 0.9 | 5.2 | 0.00 | 0.80 | 0.00 | 92 | 1014.9 |
| 20260903143338 | 72 | 222 | 2.6 | 4.3 | 0.00 | 0.80 | 0.00 | 92 | 1014.8 |
| 20260903142906 | 72 | 220 | 0.9 | 6.1 | 0.00 | 0.80 | 0.00 | 92 | 1014.9 |
| 20260903142356 | 71 | 227 | 2.6 | 7.0 | 0.00 | 0.80 | 0.00 | 92 | 1014.9 |
| 20260903141836 | 71 | 223 | 2.6 | 7.0 | 0.00 | 0.80 | 0.00 | 93 | 1014.9 |
| 20260903141334 | 71 | 233 | 1.7 | 4.3 | 0.00 | 0.80 | 0.00 | 93 | 1014.9 |
| 20260903140836 | 71 | 213 | 2.6 | 6.1 | 0.00 | 0.80 | 0.00 | 93 | 1014.8 |
| 20260903140351 | 71 | 213 | 1.7 | 7.8 | 0.00 | 0.80 | 0.00 | 93 | 1014.8 |
| 20260903135853 | 71 | 236 | 3.5 | 7.0 | 0.00 | 0.80 | 0.00 | 94 | 1014.7 |
| 20260903135332 | 71 | 242 | 3.5 | 7.0 | 0.00 | 0.80 | 0.00 | 94 | 1014.8 |
| 20260903134855 | 70 | 168 | 0.9 | 7.0 | 0.00 | 0.80 | 0.00 | 95 | 1014.8 |
| 20260903134334 | 70 | 201 | 3.5 | 7.0 | 0.00 | 0.80 | 0.00 | 95 | 1014.9 |
| 20260903133832 | 70 | 156 | 1.7 | 6.1 | 0.00 | 0.80 | 0.00 | 96 | 1014.9 |
| 20260903133332 | 70 | 212 | 2.6 | 6.1 | 0.00 | 0.80 | 0.00 | 96 | 1014.9 |
| 20260903132832 | 70 | 225 | 1.7 | 7.0 | 0.00 | 0.80 | 0.00 | 96 | 1014.9 |
| 20260903132353 | 70 | 246 | 1.7 | 4.3 | 0.00 | 0.80 | 0.00 | 97 | 1015.0 |
| 20260903131842 | 70 | 207 | 1.7 | 4.3 | 0.00 | 0.80 | 0.00 | 97 | 1015.1 |
| 20260903131340 | 70 | 236 | 1.7 | 4.3 | 0.00 | 0.80 | 0.00 | 97 | 1015.3 |
| 20260903130855 | 70 | 235 | 0.9 | 4.3 | 0.00 | 0.80 | 0.00 | 97 | 1015.3 |
| 20260903130420 | 70 | 211 | 0.9 | 2.6 | 0.00 | 0.80 | 0.00 | 97 | 1015.3 |
| 20260903075831 | 67 | 92 | 2.6 | 4.3 | 0.00 | 0.99 | 0.00 | 96 | 1012.9 |
| 20260903075352 | 67 | 266 | 1.7 | 6.1 | 0.00 | 0.99 | 0.00 | 96 | 1012.9 |
| 20260903074842 | 67 | 227 | 2.6 | 6.1 | 0.00 | 0.99 | 0.00 | 96 | 1013.1 |
| 20260903074342 | 67 | 138 | 0.9 | 5.2 | 0.00 | 0.99 | 0.00 | 96 | 1012.9 |
| 20260903073839 | 67 | 259 | 1.7 | 5.2 | 0.00 | 0.99 | 0.00 | 96 | 1013.0 |
| 20260903073337 | 67 | 218 | 0.0 | 2.6 | 0.00 | 0.99 | 0.00 | 96 | 1013.1 |
| 20260903072842 | 67 | 186 | 0.9 | 5.2 | 0.00 | 0.99 | 0.00 | 96 | 1013.1 |
| 20260903072334 | 67 | 231 | 1.7 | 5.2 | 0.00 | 0.99 | 0.00 | 96 | 1013.2 |
| 20260903071834 | 67 | 206 | 0.9 | 4.3 | 0.00 | 0.99 | 0.00 | 96 | 1013.2 |
| 20260903071333 | 67 | 226 | 1.7 | 4.3 | 0.00 | 0.99 | 0.00 | 96 | 1013.2 |
| 20260903070840 | 67 | 225 | 0.9 | 2.6 | 0.00 | 0.99 | 0.00 | 96 | 1013.1 |
| 20260903070342 | 67 | 270 | 0.9 | 3.5 | 0.00 | 0.99 | 0.00 | 96 | 1013.0 |
| 20260903065849 | 67 | 263 | 0.9 | 4.3 | 0.00 | 0.99 | 0.00 | 95 | 1013.0 |
| 20260903065334 | 67 | 249 | 2.6 | 4.3 | 0.00 | 0.99 | 0.00 | 96 | 1013.4 |
| 20260903064830 | 67 | 243 | 0.9 | 2.6 | 0.00 | 0.99 | 0.00 | 96 | 1013.6 |
| 20260903064341 | 67 | 243 | 0.9 | 3.5 | 0.00 | 0.99 | 0.00 | 96 | 1013.7 |
| 20260903063847 | 67 | 238 | 1.7 | 3.5 | 0.00 | 0.99 | 0.00 | 96 | 1014.0 |
| 20260903063348 | 67 | 217 | 1.7 | 3.5 | 0.00 | 0.99 | 0.00 | 96 | 1013.8 |
| 20260903062905 | 67 | 159 | 0.9 | 4.3 | 0.00 | 0.99 | 0.00 | 96 | 1013.9 |
| 20260903062348 | 67 | 247 | 0.9 | 4.3 | 0.00 | 0.99 | 0.00 | 96 | 1013.8 |
| 20260903061848 | 67 | 205 | 0.9 | 7.0 | 0.00 | 0.99 | 0.00 | 96 | 1013.8 |
| 20260903061349 | 67 | 249 | 2.6 | 8.7 | 0.00 | 0.99 | 0.00 | 96 | 1014.0 |
| 20260903060833 | 67 | 211 | 2.6 | 8.7 | 0.00 | 0.99 | 0.00 | 96 | 1014.1 |
| 20260903060332 | 67 | 234 | 1.7 | 7.0 | 0.00 | 0.99 | 0.00 | 96 | 1014.0 |
| 20260903055901 | 67 | 246 | 3.5 | 7.0 | 0.00 | 0.99 | 0.00 | 96 | 1013.9 |
| 20260903054847 | 67 | 272 | 1.7 | 4.3 | 0.00 | 0.99 | 0.00 | 95 | 1013.8 |
| 20260903054352 | 67 | 207 | 2.6 | 6.1 | 0.00 | 0.99 | 0.00 | 95 | 1013.7 |
| 20260903053856 | 67 | 239 | 1.7 | 6.1 | 0.00 | 0.99 | 0.00 | 95 | 1013.5 |
| 20260903053336 | 67 | 216 | 0.9 | 7.0 | 0.00 | 0.99 | 0.00 | 95 | 1013.7 |
| 20260903052854 | 67 | 215 | 2.6 | 7.0 | 0.00 | 0.99 | 0.00 | 95 | 1014.0 |
| 20260903052338 | 67 | 240 | 2.6 | 10.4 | 0.00 | 0.99 | 0.00 | 95 | 1014.4 |
| 20260903051844 | 67 | 217 | 3.5 | 7.8 | 0.00 | 0.99 | 0.00 | 95 | 1014.1 |
| 20260903051331 | 67 | 246 | 1.7 | 7.8 | 0.00 | 0.99 | 0.00 | 95 | 1014.2 |
| 20260903050834 | 67 | 247 | 1.7 | 4.3 | 0.00 | 0.99 | 0.00 | 95 | 1014.1 |
| 20260903050358 | 67 | 235 | 1.7 | 3.5 | 0.00 | 0.99 | 0.00 | 95 | 1013.8 |
| 20260903045843 | 67 | 230 | 1.7 | 2.6 | 0.00 | 0.99 | 0.00 | 95 | 1014.0 |
| 20260903045409 | 67 | 182 | 0.9 | 3.5 | 0.00 | 0.99 | 0.00 | 95 | 1014.1 |
| 20260903044847 | 67 | 245 | 1.7 | 3.5 | 0.01 | 0.99 | 0.00 | 95 | 1014.2 |
| 20260903044332 | 67 | 212 | 1.7 | 3.5 | 0.01 | 0.99 | 0.00 | 95 | 1014.2 |
| 20260903043912 | 67 | 258 | 0.9 | 3.5 | 0.02 | 0.99 | 0.00 | 95 | 1014.2 |
| 20260903043338 | 67 | 199 | 0.9 | 3.5 | 0.02 | 0.99 | 0.00 | 95 | 1013.8 |
| 20260903042858 | 67 | 253 | 1.7 | 2.6 | 0.02 | 0.99 | 0.00 | 95 | 1013.7 |
| 20260903042340 | 67 | 253 | 0.9 | 4.3 | 0.02 | 0.99 | 0.00 | 95 | 1013.7 |
| 20260903041841 | 67 | 248 | 1.7 | 5.2 | 0.03 | 0.99 | 0.00 | 95 | 1014.2 |
| 20260903041413 | 67 | 244 | 1.7 | 4.3 | 0.03 | 0.99 | 0.00 | 95 | 1014.2 |
| 20260903040843 | 67 | 232 | 1.7 | 4.3 | 0.03 | 0.99 | 0.00 | 95 | 1014.0 |
| 20260903040337 | 67 | 157 | 0.9 | 3.5 | 0.03 | 0.99 | 0.00 | 95 | 1013.6 |
| 20260903035843 | 67 | 136 | 0.9 | 4.3 | 0.03 | 0.99 | 0.99 | 95 | 1013.6 |
| 20260903035343 | 67 | 198 | 0.9 | 1.7 | 0.11 | 0.98 | 0.98 | 95 | 1013.6 |
| 20260903034845 | 67 | 107 | 0.0 | 1.7 | 0.11 | 0.98 | 0.98 | 95 | 1013.1 |
| 20260903034339 | 67 | 188 | 0.9 | 1.7 | 0.11 | 0.98 | 0.98 | 95 | 1013.2 |
| 20260903033837 | 67 | 188 | 0.0 | 1.7 | 0.11 | 0.97 | 0.97 | 95 | 1013.4 |
| 20260903033346 | 67 | 188 | 0.9 | 2.6 | 0.11 | 0.97 | 0.97 | 95 | 1013.4 |
| 20260903032849 | 67 | 188 | 0.9 | 2.6 | 0.11 | 0.97 | 0.97 | 95 | 1013.6 |
| 20260903032331 | 67 | 240 | 0.0 | 1.7 | 0.11 | 0.97 | 0.97 | 95 | 1014.0 |
| 20260903031857 | 67 | 240 | 0.9 | 1.7 | 0.10 | 0.96 | 0.96 | 94 | 1014.5 |
| 20260903031333 | 67 | 240 | 0.9 | 1.7 | 0.10 | 0.96 | 0.96 | 94 | 1014.4 |
| 20260903030831 | 67 | 240 | 0.9 | 1.7 | 0.10 | 0.96 | 0.96 | 94 | 1014.2 |
| 20260903030351 | 67 | 240 | 0.9 | 2.6 | 0.11 | 0.96 | 0.96 | 94 | 1014.2 |
| 20260903025841 | 67 | 240 | 0.0 | 4.3 | 0.11 | 0.96 | 0.96 | 94 | 1014.3 |
| 20260903025400 | 67 | 252 | 1.7 | 4.3 | 0.03 | 0.87 | 0.87 | 94 | 1014.8 |
| 20260903024841 | 68 | 230 | 1.7 | 2.6 | 0.04 | 0.87 | 0.87 | 94 | 1014.5 |
| 20260903024332 | 68 | 230 | 0.9 | 2.6 | 0.05 | 0.87 | 0.87 | 94 | 1014.6 |
| 20260903023833 | 68 | 230 | 0.9 | 1.7 | 0.07 | 0.86 | 0.86 | 94 | 1014.5 |
| 20260903023340 | 68 | 230 | 0.9 | 1.7 | 0.13 | 0.86 | 0.86 | 94 | 1014.5 |
| 20260903022839 | 68 | 230 | 0.9 | 1.7 | 0.13 | 0.86 | 0.86 | 94 | 1014.8 |
| 20260903022406 | 68 | 230 | 0.9 | 1.7 | 0.13 | 0.86 | 0.86 | 94 | 1014.9 |
| 20260903021848 | 68 | 230 | 0.0 | 1.7 | 0.13 | 0.86 | 0.86 | 94 | 1014.8 |
| 20260903021345 | 68 | 230 | 0.9 | 3.5 | 0.13 | 0.86 | 0.86 | 94 | 1014.8 |
| 20260903020843 | 68 | 230 | 0.0 | 3.5 | 0.13 | 0.86 | 0.86 | 94 | 1014.7 |
| 20260903020334 | 68 | 244 | 1.7 | 3.5 | 0.12 | 0.85 | 0.85 | 94 | 1014.7 |
| 20260903015843 | 68 | 251 | 1.7 | 3.5 | 0.12 | 0.85 | 0.85 | 93 | 1014.6 |
| 20260903015340 | 69 | 238 | 1.7 | 3.5 | 0.10 | 0.83 | 0.83 | 93 | 1014.6 |
| 20260903014904 | 69 | 216 | 1.7 | 3.5 | 0.11 | 0.83 | 0.83 | 94 | 1014.6 |
| 20260903014353 | 69 | 220 | 1.7 | 7.8 | 0.10 | 0.82 | 0.82 | 94 | 1014.5 |
| 20260903013847 | 69 | 121 | 4.3 | 7.8 | 0.08 | 0.79 | 0.79 | 94 | 1015.2 |
| 20260903013407 | 69 | 244 | 2.6 | 7.8 | 0.03 | 0.73 | 0.73 | 94 | 1015.9 |
| 20260903012852 | 69 | 111 | 2.6 | 7.8 | 0.03 | 0.73 | 0.73 | 93 | 1014.5 |
| 20260903012333 | 69 | 79 | 2.6 | 7.0 | 0.04 | 0.73 | 0.73 | 93 | 1015.0 |
| 20260903011837 | 69 | 101 | 0.9 | 1.7 | 0.04 | 0.73 | 0.73 | 93 | 1014.4 |
| 20260903011345 | 69 | 101 | 0.9 | 1.7 | 0.04 | 0.73 | 0.73 | 93 | 1014.6 |
| 20260903010841 | 69 | 98 | 0.9 | 2.6 | 0.05 | 0.73 | 0.73 | 93 | 1014.8 |
| 20260903010345 | 69 | 115 | 0.9 | 4.3 | 0.05 | 0.73 | 0.73 | 93 | 1015.0 |
| 20260903005833 | 69 | 171 | 0.9 | 3.5 | 0.05 | 0.73 | 0.73 | 93 | 1015.2 |
| 20260903005339 | 69 | 123 | 0.9 | 2.6 | 0.05 | 0.73 | 0.73 | 93 | 1015.2 |
| 20260903004902 | 69 | 116 | 0.9 | 2.6 | 0.04 | 0.72 | 0.72 | 93 | 1015.3 |
| 20260903004341 | 70 | 116 | 0.9 | 3.5 | 0.04 | 0.72 | 0.72 | 93 | 1015.0 |
| 20260903003833 | 69 | 116 | 0.9 | 5.2 | 0.06 | 0.71 | 0.71 | 93 | 1014.4 |
| 20260903003359 | 70 | 90 | 1.7 | 4.3 | 0.19 | 0.70 | 0.70 | 93 | 1014.5 |
| 20260903002832 | 70 | 115 | 1.7 | 7.8 | 0.37 | 0.70 | 0.70 | 93 | 1014.5 |
| 20260903002347 | 69 | 360 | 3.5 | 7.8 | 0.44 | 0.69 | 0.69 | 93 | 1014.5 |
| 20260903001847 | 70 | 38 | 1.7 | 7.0 | 0.44 | 0.69 | 0.69 | 92 | 1013.9 |
| 20260903001337 | 70 | 24 | 3.5 | 7.0 | 0.44 | 0.69 | 0.69 | 92 | 1013.5 |
| 20260903000830 | 70 | 44 | 2.6 | 5.2 | 0.43 | 0.68 | 0.68 | 92 | 1013.4 |
| 20260903000335 | 70 | 263 | 1.7 | 5.2 | 0.43 | 0.68 | 0.68 | 92 | 1013.2 |
| 20260902235844 | 70 | 96 | 1.7 | 5.2 | 0.43 | 0.68 | 0.68 | 92 | 1013.4 |
| 20260902235350 | 70 | 47 | 1.7 | 5.2 | 0.43 | 0.68 | 0.68 | 92 | 1013.2 |
| 20260902234900 | 71 | 46 | 2.6 | 8.7 | 0.43 | 0.68 | 0.68 | 91 | 1013.0 |
| 20260902234340 | 71 | 113 | 2.6 | 11.3 | 0.43 | 0.68 | 0.68 | 90 | 1012.9 |
| 20260902233836 | 72 | 255 | 4.3 | 12.2 | 0.40 | 0.65 | 0.65 | 88 | 1012.7 |
| 20260902233343 | 74 | 20 | 5.2 | 13.9 | 0.26 | 0.51 | 0.51 | 85 | 1012.3 |
| 20260902232833 | 77 | 309 | 5.2 | 13.0 | 0.08 | 0.33 | 0.33 | 90 | 1012.8 |
| 20260902232336 | 77 | 306 | 0.9 | 4.3 | 0.00 | 0.25 | 0.25 | 91 | 1012.6 |
| 20260902231841 | 78 | 216 | 0.9 | 4.3 | 0.00 | 0.25 | 0.25 | 91 | 1012.8 |
| 20260902231404 | 78 | 294 | 0.9 | 1.7 | 0.00 | 0.25 | 0.25 | 91 | 1013.1 |
| 20260902230841 | 78 | 224 | 0.9 | 1.7 | 0.00 | 0.25 | 0.25 | 91 | 1013.1 |
| 20260902230345 | 79 | 229 | 0.0 | 4.3 | 0.00 | 0.25 | 0.25 | 91 | 1012.9 |
| 20260902225839 | 79 | 229 | 1.7 | 6.1 | 0.00 | 0.25 | 0.25 | 91 | 1013.0 |
| 20260902225341 | 79 | 220 | 1.7 | 6.1 | 0.00 | 0.25 | 0.25 | 90 | 1013.0 |
| 20260902224849 | 79 | 223 | 1.7 | 6.1 | 0.00 | 0.25 | 0.25 | 90 | 1013.0 |
| 20260902224337 | 79 | 227 | 1.7 | 5.2 | 0.00 | 0.25 | 0.25 | 90 | 1013.1 |
| 20260902223834 | 79 | 237 | 1.7 | 6.1 | 0.00 | 0.25 | 0.25 | 89 | 1013.2 |
| 20260902223351 | 80 | 236 | 1.7 | 6.1 | 0.00 | 0.25 | 0.25 | 89 | 1013.2 |
| 20260902222833 | 80 | 244 | 1.7 | 7.0 | 0.00 | 0.25 | 0.25 | 88 | 1013.2 |
| 20260902222338 | 80 | 223 | 1.7 | 7.0 | 0.00 | 0.25 | 0.25 | 88 | 1013.1 |
| 20260902221843 | 80 | 206 | 1.7 | 6.1 | 0.00 | 0.25 | 0.25 | 88 | 1013.1 |
| 20260902221336 | 80 | 239 | 2.6 | 4.3 | 0.00 | 0.25 | 0.25 | 88 | 1013.1 |
| 20260902220843 | 80 | 223 | 1.7 | 4.3 | 0.00 | 0.25 | 0.25 | 88 | 1013.0 |
| 20260902220336 | 80 | 201 | 1.7 | 3.5 | 0.00 | 0.25 | 0.25 | 88 | 1012.8 |
| 20260902215849 | 81 | 141 | 1.7 | 4.3 | 0.00 | 0.25 | 0.25 | 88 | 1012.7 |
| 20260902215415 | 81 | 207 | 1.7 | 4.3 | 0.00 | 0.25 | 0.25 | 88 | 1012.9 |
| 20260902214837 | 80 | 246 | 0.9 | 3.5 | 0.00 | 0.25 | 0.25 | 88 | 1012.8 |
| 20260902214335 | 80 | 212 | 0.9 | 4.3 | 0.00 | 0.25 | 0.25 | 87 | 1012.5 |
| 20260902213843 | 81 | 228 | 1.7 | 7.8 | 0.00 | 0.25 | 0.25 | 86 | 1012.5 |
| 20260902213340 | 82 | 255 | 1.7 | 9.6 | 0.00 | 0.25 | 0.25 | 86 | 1012.5 |
| 20260902212848 | 82 | 257 | 2.6 | 9.6 | 0.00 | 0.25 | 0.25 | 86 | 1012.6 |
| 20260902212331 | 82 | 226 | 3.5 | 8.7 | 0.00 | 0.25 | 0.25 | 85 | 1012.8 |
| 20260902211902 | 81 | 215 | 3.5 | 7.8 | 0.00 | 0.25 | 0.25 | 87 | 1012.9 |
| 20260902211402 | 81 | 204 | 3.5 | 7.8 | 0.00 | 0.25 | 0.25 | 88 | 1013.2 |
| 20260902210841 | 80 | 226 | 1.7 | 4.3 | 0.00 | 0.25 | 0.25 | 88 | 1013.4 |
| 20260902210331 | 79 | 179 | 1.7 | 5.2 | 0.00 | 0.25 | 0.25 | 88 | 1013.4 |
| 20260902205839 | 79 | 140 | 1.7 | 5.2 | 0.00 | 0.25 | 0.25 | 89 | 1012.8 |
| 20260902205344 | 80 | 243 | 0.9 | 8.7 | 0.00 | 0.25 | 0.25 | 89 | 1013.4 |
| 20260902204835 | 81 | 232 | 3.5 | 8.7 | 0.00 | 0.25 | 0.25 | 86 | 1013.5 |
| 20260902204335 | 82 | 223 | 0.9 | 7.8 | 0.00 | 0.25 | 0.25 | 84 | 1013.8 |
| 20260902203839 | 83 | 211 | 0.9 | 6.1 | 0.00 | 0.25 | 0.25 | 84 | 1013.9 |
| 20260902203332 | 83 | 213 | 2.6 | 6.1 | 0.00 | 0.25 | 0.25 | 84 | 1014.2 |
| 20260902202839 | 82 | 205 | 1.7 | 2.6 | 0.00 | 0.25 | 0.25 | 87 | 1014.5 |
| 20260902202343 | 81 | 240 | 0.9 | 6.1 | 0.00 | 0.25 | 0.25 | 87 | 1014.5 |
| 20260902201835 | 82 | 260 | 1.7 | 6.1 | 0.00 | 0.25 | 0.25 | 87 | 1014.6 |
| 20260902201332 | 82 | 246 | 0.9 | 6.1 | 0.00 | 0.25 | 0.25 | 86 | 1014.7 |
| 20260902200843 | 82 | 187 | 1.7 | 6.1 | 0.00 | 0.25 | 0.25 | 84 | 1014.9 |
| 20260902200345 | 82 | 219 | 0.9 | 4.3 | 0.00 | 0.25 | 0.25 | 84 | 1014.8 |
| 20260902195849 | 83 | 240 | 1.7 | 4.3 | 0.00 | 0.25 | 0.25 | 84 | 1015.1 |
| 20260902195340 | 82 | 160 | 1.7 | 4.3 | 0.00 | 0.25 | 0.25 | 83 | 1015.1 |
| 20260902194839 | 82 | 197 | 0.9 | 5.2 | 0.00 | 0.25 | 0.25 | 83 | 1015.0 |
| 20260902194335 | 82 | 228 | 2.6 | 5.2 | 0.00 | 0.25 | 0.25 | 82 | 1015.0 |
| 20260902193831 | 82 | 220 | 1.7 | 5.2 | 0.00 | 0.25 | 0.25 | 85 | 1015.0 |
| 20260902193332 | 81 | 205 | 0.9 | 5.2 | 0.00 | 0.25 | 0.25 | 85 | 1015.1 |
| 20260902192855 | 81 | 198 | 0.9 | 5.2 | 0.00 | 0.25 | 0.25 | 86 | 1015.1 |
| 20260902192335 | 80 | 196 | 0.0 | 6.1 | 0.00 | 0.25 | 0.25 | 86 | 1015.2 |
| 20260902191837 | 80 | 221 | 1.7 | 6.1 | 0.00 | 0.25 | 0.25 | 87 | 1015.3 |
| 20260902191407 | 80 | 220 | 1.7 | 6.1 | 0.00 | 0.25 | 0.25 | 86 | 1015.3 |
| 20260902190833 | 81 | 240 | 2.6 | 7.0 | 0.00 | 0.25 | 0.25 | 85 | 1015.3 |
| 20260902190337 | 81 | 211 | 2.6 | 7.0 | 0.00 | 0.25 | 0.25 | 85 | 1015.4 |
| 20260902185842 | 81 | 226 | 2.6 | 6.1 | 0.00 | 0.25 | 0.25 | 85 | 1015.4 |
| 20260902185335 | 81 | 226 | 1.7 | 4.3 | 0.00 | 0.25 | 0.25 | 84 | 1015.4 |
| 20260902184831 | 81 | 209 | 0.9 | 5.2 | 0.00 | 0.25 | 0.25 | 86 | 1015.3 |
| 20260902184352 | 81 | 259 | 2.6 | 7.0 | 0.00 | 0.25 | 0.25 | 86 | 1015.2 |
| 20260902183851 | 81 | 230 | 2.6 | 7.0 | 0.00 | 0.25 | 0.25 | 85 | 1015.2 |
| 20260902183350 | 81 | 211 | 4.3 | 7.0 | 0.00 | 0.25 | 0.25 | 85 | 1015.2 |
| 20260902182836 | 80 | 196 | 3.5 | 7.8 | 0.00 | 0.25 | 0.25 | 86 | 1015.2 |